Carnival Liberty — HPYE — position and weather

sailwx.info

Track history (hours):
 
Tides and Currents Weather Stations Pressure Air Temp Water Temp Dewpoint Dewpoint Depression Visibility Wind Speed Wind Dir Waves Ship Positions

Carnival Liberty

Last reported at 2017-Jan-23 00:06 UTC. Time now 2017-Jan-23 12:29 UTC.
Position N 28°10' W 080°21'.

Type: Ship. MMSI: 371083000.

Date/timePositionNaut miles runAvg speedWind from/ knotsBaromVisibWave heightAir tempDewpointWater temp
2017-Jan-23 00:06N 28°10' W 080°21'23 1.3
2017-Jan-22 06:33N 27°51' W 080°06'10 9.9
2017-Jan-22 05:34N 27°42' W 080°02'1211.5
2017-Jan-22 04:33N 27°31' W 079°56'2712.3
2017-Jan-22 02:23N 27°08' W 079°41'3713.0
2017-Jan-21 23:33N 26°33' W 079°28'103 7.6
2017-Jan-21 10:00N 25°54' W 077°42'   340 / 121020.010.8 20.016.722.0
2017-Jan-19 04:29N 27°17' W 079°46'1415.5
2017-Jan-19 03:33N 27°03' W 079°44'2914.5
2017-Jan-19 01:33N 26°35' W 079°37'1413.8
2017-Jan-19 00:33N 26°21' W 079°34'1313.3
2017-Jan-18 23:33N 26°08' W 079°31'1312.9
2017-Jan-18 22:33N 25°56' W 079°36'8 8.1
2017-Jan-18 21:33N 25°48' W 079°35'1010.0
2017-Jan-18 20:32N 25°57' W 079°30'1010.2
2017-Jan-18 19:31N 26°07' W 079°25'83 7.9
2017-Jan-18 09:00N 25°54' W 077°54'   200 / 51020.010.8 20.016.722.0
2017-Jan-15 22:08N 28°24' W 080°34'3 4.7
2017-Jan-15 21:32N 28°25' W 080°37'0 0.0
2017-Jan-15 12:11N 28°25' W 080°38'10 5.6
2017-Jan-15 10:23N 28°19' W 080°28'911.4
2017-Jan-15 09:33N 28°12' W 080°21'8410.4
2017-Jan-15 01:27N 26°57' W 079°39'1910.1
2017-Jan-14 23:34N 26°38' W 079°41'11 8.0
2017-Jan-14 22:09N 26°27' W 079°40'610.1
2017-Jan-14 21:34N 26°21' W 079°42'9 9.3
2017-Jan-14 20:33N 26°12' W 079°44'9 9.3
2017-Jan-14 19:34N 26°06' W 079°37'9 9.1
2017-Jan-14 18:34N 25°59' W 079°31'7 6.4
2017-Jan-14 17:32N 26°04' W 079°27'56 1.5
2017-Jan-13 04:17N 26°59' W 079°32'  
Track history (hours):
 
Tides and Currents Weather Stations Pressure Air Temp Water Temp Dewpoint Dewpoint Depression Visibility Wind Speed Wind Dir Waves Ship Positions

Carnival Liberty

Last reported at 2017-Jan-23 00:06 UTC. Time now 2017-Jan-23 12:29 UTC.
Position N 28°10' W 080°21'.

Type: Ship. MMSI: 371083000.

Date/timePositionNaut miles runAvg speedWind from/ knotsBaromVisibWave heightAir tempDewpointWater temp
2017-Jan-23 00:06N 28°10' W 080°21'23 1.3
2017-Jan-22 06:33N 27°51' W 080°06'10 9.9
2017-Jan-22 05:34N 27°42' W 080°02'1211.5
2017-Jan-22 04:33N 27°31' W 079°56'2712.3
2017-Jan-22 02:23N 27°08' W 079°41'3713.0
2017-Jan-21 23:33N 26°33' W 079°28'103 7.6
2017-Jan-21 10:00N 25°54' W 077°42'   340 / 121020.010.8 20.016.722.0
2017-Jan-19 04:29N 27°17' W 079°46'1415.5
2017-Jan-19 03:33N 27°03' W 079°44'2914.5
2017-Jan-19 01:33N 26°35' W 079°37'1413.8
2017-Jan-19 00:33N 26°21' W 079°34'1313.3
2017-Jan-18 23:33N 26°08' W 079°31'1312.9
2017-Jan-18 22:33N 25°56' W 079°36'8 8.1
2017-Jan-18 21:33N 25°48' W 079°35'1010.0
2017-Jan-18 20:32N 25°57' W 079°30'1010.2
2017-Jan-18 19:31N 26°07' W 079°25'83 7.9
2017-Jan-18 09:00N 25°54' W 077°54'   200 / 51020.010.8 20.016.722.0
2017-Jan-15 22:08N 28°24' W 080°34'3 4.7
2017-Jan-15 21:32N 28°25' W 080°37'0 0.0
2017-Jan-15 12:11N 28°25' W 080°38'10 5.6
2017-Jan-15 10:23N 28°19' W 080°28'911.4
2017-Jan-15 09:33N 28°12' W 080°21'8410.4
2017-Jan-15 01:27N 26°57' W 079°39'1910.1
2017-Jan-14 23:34N 26°38' W 079°41'11 8.0
2017-Jan-14 22:09N 26°27' W 079°40'610.1
2017-Jan-14 21:34N 26°21' W 079°42'9 9.3
2017-Jan-14 20:33N 26°12' W 079°44'9 9.3
2017-Jan-14 19:34N 26°06' W 079°37'9 9.1
2017-Jan-14 18:34N 25°59' W 079°31'7 6.4
2017-Jan-14 17:32N 26°04' W 079°27'56 1.5
2017-Jan-13 04:17N 26°59' W 079°32'  

Dump ship's entire track history